Location: Allen Fire Department Station 4
(33.1073°N, 96.6988°W)
Time: 10:44:21
(UTC+00:00)

Cosmos 1656 Rocket - Pass Details

Date: 03 December 2021
Orbit: 794 x 848 km, 71.1° (Epoch: 23 January)

Event Time Altitude Azimuth Distance (km) Brightness Sun altitude
Rises 12:19:18 0° 229° (SW) 3,282 6.5 -11.4°
Reaches altitude 10° 12:22:03 10° 241° (WSW) 2,355 5.6 -10.8°
Maximum altitude 12:26:33 27° 298° (WNW) 1,490 4.4 -10.0°
Drops below altitude 10° 12:31:06 10° 356° (N) 2,373 5.8 -9.1°
Sets 12:33:54 0° 8° (N) 3,312 6.7 -8.5°
